Year,Month,Day,Hour,Minute,Value (Times are PST for windspeed in km/hr)
2010,07,15,00,00,0.00
2010,07,15,00,01,0.00
2010,07,15,00,02,0.00
2010,07,15,00,03,0.00
2010,07,15,00,04,0.00
2010,07,15,00,05,0.00
2010,07,15,00,06,0.00
2010,07,15,00,07,0.10
2010,07,15,00,08,0.00
2010,07,15,00,09,0.20
2010,07,15,00,10,0.20
2010,07,15,00,11,0.00
2010,07,15,00,12,0.00
2010,07,15,00,13,0.00
2010,07,15,00,14,0.00
2010,07,15,00,15,0.00
2010,07,15,00,16,0.00
2010,07,15,00,17,0.00
2010,07,15,00,18,0.00
2010,07,15,00,19,0.10
2010,07,15,00,20,0.00
2010,07,15,00,21,0.00
2010,07,15,00,22,0.00
2010,07,15,00,23,0.00
2010,07,15,00,24,0.00
2010,07,15,00,25,0.00
2010,07,15,00,26,0.20
2010,07,15,00,27,0.20
2010,07,15,00,28,0.20
2010,07,15,00,29,0.00
2010,07,15,00,30,0.00
2010,07,15,00,31,0.00
2010,07,15,00,32,0.00
2010,07,15,00,33,0.00
2010,07,15,00,34,0.00
2010,07,15,00,35,0.00
2010,07,15,00,36,0.00
2010,07,15,00,37,0.00
2010,07,15,00,38,0.00
2010,07,15,00,39,0.00
2010,07,15,00,40,0.00
2010,07,15,00,41,0.80
2010,07,15,00,42,0.60
2010,07,15,00,43,0.00
2010,07,15,00,44,0.10
2010,07,15,00,45,2.60
2010,07,15,00,46,5.00
2010,07,15,00,47,2.50
2010,07,15,00,48,0.60
2010,07,15,00,49,0.10
2010,07,15,00,50,0.10
2010,07,15,00,51,0.00
2010,07,15,00,52,0.60
2010,07,15,00,53,3.90
2010,07,15,00,54,5.60
2010,07,15,00,55,3.00
2010,07,15,00,56,1.50
2010,07,15,00,57,0.00
2010,07,15,00,58,0.00
2010,07,15,00,59,2.40
2010,07,15,01,00,3.50
2010,07,15,01,01,3.00
2010,07,15,01,02,1.50
2010,07,15,01,03,1.40
2010,07,15,01,04,1.40
2010,07,15,01,05,3.50
2010,07,15,01,06,3.70
2010,07,15,01,07,2.90
2010,07,15,01,08,3.50
2010,07,15,01,09,2.40
2010,07,15,01,10,2.70
2010,07,15,01,11,5.10
2010,07,15,01,12,6.50
2010,07,15,01,13,6.10
2010,07,15,01,14,5.00
2010,07,15,01,15,4.70
2010,07,15,01,16,2.70
2010,07,15,01,17,1.40
2010,07,15,01,18,2.60
2010,07,15,01,19,0.90
2010,07,15,01,20,0.70
2010,07,15,01,21,0.90
2010,07,15,01,22,2.10
2010,07,15,01,23,3.90
2010,07,15,01,24,2.70
2010,07,15,01,25,2.00
2010,07,15,01,26,2.20
2010,07,15,01,27,4.70
2010,07,15,01,28,6.00
2010,07,15,01,29,6.10
2010,07,15,01,30,5.70
2010,07,15,01,31,5.70
2010,07,15,01,32,7.90
2010,07,15,01,33,5.80
2010,07,15,01,34,5.60
2010,07,15,01,35,6.00
2010,07,15,01,36,5.20
2010,07,15,01,37,6.00
2010,07,15,01,38,7.20
2010,07,15,01,39,6.00
2010,07,15,01,40,5.80
2010,07,15,01,41,5.60
2010,07,15,01,42,5.30
2010,07,15,01,43,5.30
2010,07,15,01,44,7.10
2010,07,15,01,45,7.70
2010,07,15,01,46,6.70
2010,07,15,01,47,6.20
2010,07,15,01,48,7.00
2010,07,15,01,49,6.30
2010,07,15,01,50,5.50
2010,07,15,01,51,5.90
2010,07,15,01,52,6.60
2010,07,15,01,53,6.30
2010,07,15,01,54,4.40
2010,07,15,01,55,3.00
2010,07,15,01,56,4.10
2010,07,15,01,57,4.60
2010,07,15,01,58,3.50
2010,07,15,01,59,2.90
2010,07,15,02,00,1.80
2010,07,15,02,01,0.20
2010,07,15,02,02,0.20
2010,07,15,02,03,0.00
2010,07,15,02,04,1.10
2010,07,15,02,05,0.80
2010,07,15,02,06,1.50
2010,07,15,02,07,0.40
2010,07,15,02,08,0.10
2010,07,15,02,09,0.20
2010,07,15,02,10,1.00
2010,07,15,02,11,0.20
2010,07,15,02,12,0.00
2010,07,15,02,13,0.10
2010,07,15,02,14,0.60
2010,07,15,02,15,1.40
2010,07,15,02,16,0.40
2010,07,15,02,17,1.40
2010,07,15,02,18,1.00
2010,07,15,02,19,0.30
2010,07,15,02,20,0.00
2010,07,15,02,21,0.00
2010,07,15,02,22,0.00
2010,07,15,02,23,0.00
2010,07,15,02,24,0.30
2010,07,15,02,25,0.10
2010,07,15,02,26,0.30
2010,07,15,02,27,0.00
2010,07,15,02,28,0.50
2010,07,15,02,29,0.50
2010,07,15,02,30,0.80
2010,07,15,02,31,0.20
2010,07,15,02,32,0.00
2010,07,15,02,33,0.00
2010,07,15,02,34,0.30
2010,07,15,02,35,0.00
2010,07,15,02,36,0.00
2010,07,15,02,37,0.90
2010,07,15,02,38,1.80
2010,07,15,02,39,1.60
2010,07,15,02,40,1.70
2010,07,15,02,41,1.80
2010,07,15,02,42,0.30
2010,07,15,02,43,0.20
2010,07,15,02,44,0.20
2010,07,15,02,45,1.80
2010,07,15,02,46,0.10
2010,07,15,02,47,0.10
2010,07,15,02,48,0.20
2010,07,15,02,49,0.00
2010,07,15,02,50,0.00
2010,07,15,02,51,0.00
2010,07,15,02,52,0.40
2010,07,15,02,53,1.20
2010,07,15,02,54,0.40
2010,07,15,02,55,1.10
2010,07,15,02,56,0.10
2010,07,15,02,57,0.10
2010,07,15,02,58,0.10
2010,07,15,02,59,0.00
2010,07,15,03,00,0.00
2010,07,15,03,01,0.00
2010,07,15,03,02,0.00
2010,07,15,03,03,0.60
2010,07,15,03,04,0.20
2010,07,15,03,05,0.10
2010,07,15,03,06,0.00
2010,07,15,03,07,0.00
2010,07,15,03,08,0.00
2010,07,15,03,09,0.00
2010,07,15,03,10,0.00
2010,07,15,03,11,0.00
2010,07,15,03,12,0.00
2010,07,15,03,13,0.00
2010,07,15,03,14,0.00
2010,07,15,03,15,0.00
2010,07,15,03,16,0.10
2010,07,15,03,17,0.80
2010,07,15,03,18,0.80
2010,07,15,03,19,0.10
2010,07,15,03,20,0.10
2010,07,15,03,21,0.30
2010,07,15,03,22,0.10
2010,07,15,03,23,0.40
2010,07,15,03,24,0.10
2010,07,15,03,25,0.10
2010,07,15,03,26,1.70
2010,07,15,03,27,0.20
2010,07,15,03,28,0.00
2010,07,15,03,29,0.00
2010,07,15,03,30,0.20
2010,07,15,03,31,0.20
2010,07,15,03,32,0.00
2010,07,15,03,33,0.30
2010,07,15,03,34,0.10
2010,07,15,03,35,0.90
2010,07,15,03,36,1.20
2010,07,15,03,37,2.90
2010,07,15,03,38,1.80
2010,07,15,03,39,1.50
2010,07,15,03,40,1.20
2010,07,15,03,41,0.80
2010,07,15,03,42,1.80
2010,07,15,03,43,0.80
2010,07,15,03,44,0.20
2010,07,15,03,45,0.30
2010,07,15,03,46,1.00
2010,07,15,03,47,1.70
2010,07,15,03,48,1.00
2010,07,15,03,49,2.80
2010,07,15,03,50,3.20
2010,07,15,03,51,2.10
2010,07,15,03,52,1.30
2010,07,15,03,53,0.60
2010,07,15,03,54,0.30
2010,07,15,03,55,0.00
2010,07,15,03,56,0.10
2010,07,15,03,57,0.90
2010,07,15,03,58,4.00
2010,07,15,03,59,4.60
2010,07,15,04,00,3.50
2010,07,15,04,01,3.20
2010,07,15,04,02,3.40
2010,07,15,04,03,5.10
2010,07,15,04,04,3.10
2010,07,15,04,05,1.80
2010,07,15,04,06,2.30
2010,07,15,04,07,1.80
2010,07,15,04,08,2.40
2010,07,15,04,09,2.50
2010,07,15,04,10,3.60
2010,07,15,04,11,3.00
2010,07,15,04,12,3.10
2010,07,15,04,13,1.90
2010,07,15,04,14,3.30
2010,07,15,04,15,1.70
2010,07,15,04,16,0.80
2010,07,15,04,17,1.40
2010,07,15,04,18,3.10
2010,07,15,04,19,2.50
2010,07,15,04,20,3.90
2010,07,15,04,21,2.60
2010,07,15,04,22,1.70
2010,07,15,04,23,3.10
2010,07,15,04,24,1.40
2010,07,15,04,25,2.20
2010,07,15,04,26,1.90
2010,07,15,04,27,1.70
2010,07,15,04,28,3.10
2010,07,15,04,29,3.20
2010,07,15,04,30,0.60
2010,07,15,04,31,0.60
2010,07,15,04,32,0.00
2010,07,15,04,33,0.10
2010,07,15,04,34,3.60
2010,07,15,04,35,3.50
2010,07,15,04,36,4.40
2010,07,15,04,37,1.70
2010,07,15,04,38,2.40
2010,07,15,04,39,1.90
2010,07,15,04,40,1.80
2010,07,15,04,41,4.40
2010,07,15,04,42,2.00
2010,07,15,04,43,3.00
2010,07,15,04,44,0.30
2010,07,15,04,45,0.90
2010,07,15,04,46,1.80
2010,07,15,04,47,1.50
2010,07,15,04,48,1.50
2010,07,15,04,49,2.70
2010,07,15,04,50,3.00
2010,07,15,04,51,1.60
2010,07,15,04,52,4.50
2010,07,15,04,53,1.90
2010,07,15,04,54,2.80
2010,07,15,04,55,1.20
2010,07,15,04,56,4.30
2010,07,15,04,57,2.50
2010,07,15,04,58,2.90
2010,07,15,04,59,4.70
2010,07,15,05,00,4.80
2010,07,15,05,01,7.50
2010,07,15,05,02,5.30
2010,07,15,05,03,4.20
2010,07,15,05,04,5.50
2010,07,15,05,05,4.00
2010,07,15,05,06,6.70
2010,07,15,05,07,4.60
2010,07,15,05,08,2.00
2010,07,15,05,09,2.70
2010,07,15,05,10,2.80
2010,07,15,05,11,3.70
2010,07,15,05,12,3.60
2010,07,15,05,13,4.60
2010,07,15,05,14,3.70
2010,07,15,05,15,3.30
2010,07,15,05,16,2.90
2010,07,15,05,17,2.80
2010,07,15,05,18,3.60
2010,07,15,05,19,3.20
2010,07,15,05,20,2.90
2010,07,15,05,21,2.30
2010,07,15,05,22,0.60
2010,07,15,05,23,1.30
2010,07,15,05,24,2.20
2010,07,15,05,25,3.20
2010,07,15,05,26,2.30
2010,07,15,05,27,3.10
2010,07,15,05,28,3.50
2010,07,15,05,29,3.20
2010,07,15,05,30,5.00
2010,07,15,05,31,2.30
2010,07,15,05,32,3.60
2010,07,15,05,33,3.50
2010,07,15,05,34,1.50
2010,07,15,05,35,1.20
2010,07,15,05,36,0.60
2010,07,15,05,37,0.30
2010,07,15,05,38,1.90
2010,07,15,05,39,2.70
2010,07,15,05,40,1.00
2010,07,15,05,41,0.00
2010,07,15,05,42,0.60
2010,07,15,05,43,0.40
2010,07,15,05,44,0.00
2010,07,15,05,45,0.00
2010,07,15,05,46,0.60
2010,07,15,05,47,0.20
2010,07,15,05,48,0.10
2010,07,15,05,49,0.10
2010,07,15,05,50,0.90
2010,07,15,05,51,0.10
2010,07,15,05,52,1.10
2010,07,15,05,53,0.60
2010,07,15,05,54,1.00
2010,07,15,05,55,2.10
2010,07,15,05,56,1.80
2010,07,15,05,57,0.90
2010,07,15,05,58,2.00
2010,07,15,05,59,1.50
2010,07,15,06,00,1.50
2010,07,15,06,01,1.60
2010,07,15,06,02,2.90
2010,07,15,06,03,1.40
2010,07,15,06,04,3.10
2010,07,15,06,05,3.10
2010,07,15,06,06,2.50
2010,07,15,06,07,2.20
2010,07,15,06,08,0.60
2010,07,15,06,09,0.00
2010,07,15,06,10,0.00
2010,07,15,06,11,0.00
2010,07,15,06,12,0.00
2010,07,15,06,13,0.00
2010,07,15,06,14,0.00
2010,07,15,06,15,0.50
2010,07,15,06,16,0.00
2010,07,15,06,17,0.30
2010,07,15,06,18,0.30
2010,07,15,06,19,0.60
2010,07,15,06,20,1.00
2010,07,15,06,21,0.80
2010,07,15,06,22,1.80
2010,07,15,06,23,1.00
2010,07,15,06,24,2.30
2010,07,15,06,25,0.10
2010,07,15,06,26,0.90
2010,07,15,06,27,0.00
2010,07,15,06,28,0.00
2010,07,15,06,29,0.00
2010,07,15,06,30,0.30
2010,07,15,06,31,1.50
2010,07,15,06,32,1.50
2010,07,15,06,33,2.50
2010,07,15,06,34,2.00
2010,07,15,06,35,2.60
2010,07,15,06,36,1.10
2010,07,15,06,37,0.50
2010,07,15,06,38,2.10
2010,07,15,06,39,3.00
2010,07,15,06,40,3.40
2010,07,15,06,41,2.10
2010,07,15,06,42,4.50
2010,07,15,06,43,5.10
2010,07,15,06,44,5.80
2010,07,15,06,45,3.90
2010,07,15,06,46,6.80
2010,07,15,06,47,5.00
2010,07,15,06,48,3.20
2010,07,15,06,49,5.50
2010,07,15,06,50,5.40
2010,07,15,06,51,6.70
2010,07,15,06,52,8.10
2010,07,15,06,53,6.60
2010,07,15,06,54,5.90
2010,07,15,06,55,6.50
2010,07,15,06,56,6.70
2010,07,15,06,57,7.60
2010,07,15,06,58,4.60
2010,07,15,06,59,2.70
2010,07,15,07,00,4.60
2010,07,15,07,01,7.60
2010,07,15,07,02,6.30
2010,07,15,07,03,3.40
2010,07,15,07,04,3.70
2010,07,15,07,05,6.30
2010,07,15,07,06,7.10
2010,07,15,07,07,2.30
2010,07,15,07,08,5.20
2010,07,15,07,09,7.60
2010,07,15,07,10,7.70
2010,07,15,07,11,5.70
2010,07,15,07,12,6.40
2010,07,15,07,13,3.10
2010,07,15,07,14,6.00
2010,07,15,07,15,7.50
2010,07,15,07,16,10.50
2010,07,15,07,17,8.50
2010,07,15,07,18,13.00
2010,07,15,07,19,10.20
2010,07,15,07,20,7.60
2010,07,15,07,21,10.30
2010,07,15,07,22,7.20
2010,07,15,07,23,6.40
2010,07,15,07,24,5.00
2010,07,15,07,25,7.70
2010,07,15,07,26,13.00
2010,07,15,07,27,11.70
2010,07,15,07,28,13.20
2010,07,15,07,29,9.20
2010,07,15,07,30,11.30
2010,07,15,07,31,10.40
2010,07,15,07,32,5.10
2010,07,15,07,33,4.60
2010,07,15,07,34,9.40
2010,07,15,07,35,9.30
2010,07,15,07,36,7.30
2010,07,15,07,37,6.40
2010,07,15,07,38,3.50
2010,07,15,07,39,7.50
2010,07,15,07,40,10.10
2010,07,15,07,41,10.10
2010,07,15,07,42,8.30
2010,07,15,07,43,8.00
2010,07,15,07,44,9.00
2010,07,15,07,45,14.20
2010,07,15,07,46,8.80
2010,07,15,07,47,12.80
2010,07,15,07,48,13.30
2010,07,15,07,49,7.50
2010,07,15,07,50,6.40
2010,07,15,07,51,8.10
2010,07,15,07,52,6.90
2010,07,15,07,53,13.40
2010,07,15,07,54,12.80
2010,07,15,07,55,11.70
2010,07,15,07,56,10.90
2010,07,15,07,57,8.60
2010,07,15,07,58,10.90
2010,07,15,07,59,7.00
2010,07,15,08,00,10.50
2010,07,15,08,01,10.30
2010,07,15,08,02,9.60
2010,07,15,08,03,8.00
2010,07,15,08,04,7.10
2010,07,15,08,05,12.30
2010,07,15,08,06,11.40
2010,07,15,08,07,15.30
2010,07,15,08,08,13.00
2010,07,15,08,09,12.20
2010,07,15,08,10,10.60
2010,07,15,08,11,11.30
2010,07,15,08,12,13.80
2010,07,15,08,13,16.60
2010,07,15,08,14,13.60
2010,07,15,08,15,11.70
2010,07,15,08,16,13.50
2010,07,15,08,17,14.60
2010,07,15,08,18,14.00
2010,07,15,08,19,12.50
2010,07,15,08,20,8.70
2010,07,15,08,21,8.10
2010,07,15,08,22,10.60
2010,07,15,08,23,13.00
2010,07,15,08,24,13.00
2010,07,15,08,25,13.50
2010,07,15,08,26,16.00
2010,07,15,08,27,14.50
2010,07,15,08,28,13.80
2010,07,15,08,29,12.00
2010,07,15,08,30,14.10
2010,07,15,08,31,10.70
2010,07,15,08,32,10.90
2010,07,15,08,33,13.90
2010,07,15,08,34,13.10
2010,07,15,08,35,12.70
2010,07,15,08,36,15.00
2010,07,15,08,37,16.00
2010,07,15,08,38,11.60
2010,07,15,08,39,11.30
2010,07,15,08,40,12.50
2010,07,15,08,41,8.60
2010,07,15,08,42,9.80
2010,07,15,08,43,10.10
2010,07,15,08,44,9.50
2010,07,15,08,45,8.80
2010,07,15,08,46,12.20
2010,07,15,08,47,11.50
2010,07,15,08,48,11.30
2010,07,15,08,49,10.30
2010,07,15,08,50,11.50
2010,07,15,08,51,17.40
2010,07,15,08,52,17.10
2010,07,15,08,53,16.30
2010,07,15,08,54,9.30
2010,07,15,08,55,16.00
2010,07,15,08,56,8.30
2010,07,15,08,57,9.20
2010,07,15,08,58,13.40
2010,07,15,08,59,9.70
2010,07,15,09,00,10.50
2010,07,15,09,01,14.60
2010,07,15,09,02,13.40
2010,07,15,09,03,12.60
2010,07,15,09,04,12.90
2010,07,15,09,05,10.90
2010,07,15,09,06,8.40
2010,07,15,09,07,13.90
2010,07,15,09,08,12.00
2010,07,15,09,09,9.70
2010,07,15,09,10,13.30
2010,07,15,09,11,15.30
2010,07,15,09,12,9.20
2010,07,15,09,13,12.90
2010,07,15,09,14,13.80
2010,07,15,09,15,13.10
2010,07,15,09,16,14.00
2010,07,15,09,17,13.40
2010,07,15,09,18,12.80
2010,07,15,09,19,10.50
2010,07,15,09,20,12.10
2010,07,15,09,21,15.50
2010,07,15,09,22,8.40
2010,07,15,09,23,12.00
2010,07,15,09,24,9.80
2010,07,15,09,25,12.30
2010,07,15,09,26,10.00
2010,07,15,09,27,15.40
2010,07,15,09,28,13.00
2010,07,15,09,29,10.90
2010,07,15,09,30,10.10
2010,07,15,09,31,11.10
2010,07,15,09,32,8.10
2010,07,15,09,33,13.90
2010,07,15,09,34,8.80
2010,07,15,09,35,10.40
2010,07,15,09,36,13.10
2010,07,15,09,37,9.30
2010,07,15,09,38,9.90
2010,07,15,09,39,11.40
2010,07,15,09,40,13.20
2010,07,15,09,41,14.10
2010,07,15,09,42,15.30
2010,07,15,09,43,13.90
2010,07,15,09,44,17.40
2010,07,15,09,45,11.80
2010,07,15,09,46,19.40
2010,07,15,09,47,12.90
2010,07,15,09,48,15.00
2010,07,15,09,49,12.90
2010,07,15,09,50,10.50
2010,07,15,09,51,13.80
2010,07,15,09,52,16.90
2010,07,15,09,53,15.50
2010,07,15,09,54,14.10
2010,07,15,09,55,16.30
2010,07,15,09,56,9.10
2010,07,15,09,57,11.30
2010,07,15,09,58,16.00
2010,07,15,09,59,13.00
2010,07,15,10,00,11.00
2010,07,15,10,01,12.50
2010,07,15,10,02,12.00
2010,07,15,10,03,14.20
2010,07,15,10,04,12.60
2010,07,15,10,05,13.30
2010,07,15,10,06,11.80
2010,07,15,10,07,13.80
2010,07,15,10,08,10.90
2010,07,15,10,09,11.80
2010,07,15,10,10,8.80
2010,07,15,10,11,10.20
2010,07,15,10,12,8.80
2010,07,15,10,13,15.90
2010,07,15,10,14,12.30
2010,07,15,10,15,14.40
2010,07,15,10,16,11.80
2010,07,15,10,17,10.90
2010,07,15,10,18,10.30
2010,07,15,10,19,10.70
2010,07,15,10,20,12.50
2010,07,15,10,21,13.60
2010,07,15,10,22,15.50
2010,07,15,10,23,15.00
2010,07,15,10,24,15.00
2010,07,15,10,25,15.70
2010,07,15,10,26,14.10
2010,07,15,10,27,14.60
2010,07,15,10,28,13.70
2010,07,15,10,29,15.60
2010,07,15,10,30,16.70
2010,07,15,10,31,12.40
2010,07,15,10,32,7.30
2010,07,15,10,33,19.60
2010,07,15,10,34,13.80
2010,07,15,10,35,11.30
2010,07,15,10,36,14.60
2010,07,15,10,37,17.80
2010,07,15,10,38,15.00
2010,07,15,10,39,18.00
2010,07,15,10,40,13.80
2010,07,15,10,41,14.20
2010,07,15,10,42,9.30
2010,07,15,10,43,6.90
2010,07,15,10,44,12.70
2010,07,15,10,45,15.40
2010,07,15,10,46,14.80
2010,07,15,10,47,16.60
2010,07,15,10,48,19.10
2010,07,15,10,49,15.40
2010,07,15,10,50,14.60
2010,07,15,10,51,13.90
2010,07,15,10,52,19.30
2010,07,15,10,53,13.10
2010,07,15,10,54,13.00
2010,07,15,10,55,13.10
2010,07,15,10,56,16.50
2010,07,15,10,57,17.50
2010,07,15,10,58,16.70
2010,07,15,10,59,15.20
2010,07,15,11,00,15.70
2010,07,15,11,01,14.60
2010,07,15,11,02,10.20
2010,07,15,11,03,10.60
2010,07,15,11,04,16.10
2010,07,15,11,05,17.80
2010,07,15,11,06,15.40
2010,07,15,11,07,15.70
2010,07,15,11,08,15.90
2010,07,15,11,09,12.60
2010,07,15,11,10,16.30
2010,07,15,11,11,12.50
2010,07,15,11,12,13.20
2010,07,15,11,13,8.20
2010,07,15,11,14,8.30
2010,07,15,11,15,8.60
2010,07,15,11,16,14.20
2010,07,15,11,17,15.00
2010,07,15,11,18,13.70
2010,07,15,11,19,16.00
2010,07,15,11,20,15.60
2010,07,15,11,21,10.10
2010,07,15,11,22,15.00
2010,07,15,11,23,16.30
2010,07,15,11,24,14.20
2010,07,15,11,25,14.80
2010,07,15,11,26,11.90
2010,07,15,11,27,12.60
2010,07,15,11,28,16.60
2010,07,15,11,29,14.90
2010,07,15,11,30,14.20
2010,07,15,11,31,12.70
2010,07,15,11,32,14.60
2010,07,15,11,33,15.90
2010,07,15,11,34,17.30
2010,07,15,11,35,14.20
2010,07,15,11,36,15.60
2010,07,15,11,37,12.50
2010,07,15,11,38,13.10
2010,07,15,11,39,17.50
2010,07,15,11,40,13.10
2010,07,15,11,41,13.80
2010,07,15,11,42,12.60
2010,07,15,11,43,15.60
2010,07,15,11,44,13.10
2010,07,15,11,45,15.40
2010,07,15,11,46,14.50
2010,07,15,11,47,15.70
2010,07,15,11,48,13.20
2010,07,15,11,49,7.50
2010,07,15,11,50,8.90
2010,07,15,11,51,8.60
2010,07,15,11,52,7.90
2010,07,15,11,53,12.40
2010,07,15,11,54,9.90
2010,07,15,11,55,11.20
2010,07,15,11,56,10.40
2010,07,15,11,57,12.10
2010,07,15,11,58,11.70
2010,07,15,11,59,13.40
2010,07,15,12,00,13.00
2010,07,15,12,01,12.50
2010,07,15,12,02,13.00
2010,07,15,12,03,14.60
2010,07,15,12,04,11.30
2010,07,15,12,05,12.80
2010,07,15,12,06,12.10
2010,07,15,12,07,12.40
2010,07,15,12,08,9.80
2010,07,15,12,09,11.90
2010,07,15,12,10,11.80
2010,07,15,12,11,15.80
2010,07,15,12,12,7.20
2010,07,15,12,13,10.90
2010,07,15,12,14,10.70
2010,07,15,12,15,13.40
2010,07,15,12,16,11.50
2010,07,15,12,17,13.80
2010,07,15,12,18,13.40
2010,07,15,12,19,10.90
2010,07,15,12,20,10.20
2010,07,15,12,21,16.40
2010,07,15,12,22,16.80
2010,07,15,12,23,5.90
2010,07,15,12,24,13.80
2010,07,15,12,25,13.40
2010,07,15,12,26,12.10
2010,07,15,12,27,13.80
2010,07,15,12,28,15.10
2010,07,15,12,29,12.50
2010,07,15,12,30,10.30
2010,07,15,12,31,15.10
2010,07,15,12,32,12.50
2010,07,15,12,33,11.60
2010,07,15,12,34,14.80
2010,07,15,12,35,14.80
2010,07,15,12,36,14.70
2010,07,15,12,37,11.50
2010,07,15,12,38,11.90
2010,07,15,12,39,10.10
2010,07,15,12,40,5.60
2010,07,15,12,41,12.30
2010,07,15,12,42,13.40
2010,07,15,12,43,15.80
2010,07,15,12,44,12.00
2010,07,15,12,45,5.60
2010,07,15,12,46,8.00
2010,07,15,12,47,12.00
2010,07,15,12,48,8.40
2010,07,15,12,49,9.60
2010,07,15,12,50,13.90
2010,07,15,12,51,10.60
2010,07,15,12,52,10.30
2010,07,15,12,53,6.10
2010,07,15,12,54,12.50
2010,07,15,12,55,10.50
2010,07,15,12,56,11.50
2010,07,15,12,57,8.80
2010,07,15,12,58,9.70
2010,07,15,12,59,13.50
2010,07,15,13,00,13.70
2010,07,15,13,01,13.60
2010,07,15,13,02,12.50
2010,07,15,13,03,15.20
2010,07,15,13,04,14.00
2010,07,15,13,05,15.30
2010,07,15,13,06,12.20
2010,07,15,13,07,11.20
2010,07,15,13,08,9.00
2010,07,15,13,09,10.00
2010,07,15,13,10,5.00
2010,07,15,13,11,15.20
2010,07,15,13,12,10.10
2010,07,15,13,13,9.20
2010,07,15,13,14,6.40
2010,07,15,13,15,14.80
2010,07,15,13,16,10.80
2010,07,15,13,17,7.60
2010,07,15,13,18,8.70
2010,07,15,13,19,12.40
2010,07,15,13,20,11.70
2010,07,15,13,21,13.60
2010,07,15,13,22,11.90
2010,07,15,13,23,11.20
2010,07,15,13,24,15.10
2010,07,15,13,25,10.70
2010,07,15,13,26,11.90
2010,07,15,13,27,13.00
2010,07,15,13,28,10.30
2010,07,15,13,29,15.50
2010,07,15,13,30,14.60
2010,07,15,13,31,14.80
2010,07,15,13,32,13.80
2010,07,15,13,33,19.00
2010,07,15,13,34,12.00
2010,07,15,13,35,8.90
2010,07,15,13,36,9.80
2010,07,15,13,37,8.40
2010,07,15,13,38,10.30
2010,07,15,13,39,15.40
2010,07,15,13,40,11.40
2010,07,15,13,41,9.70
2010,07,15,13,42,8.50
2010,07,15,13,43,16.40
2010,07,15,13,44,13.80
2010,07,15,13,45,10.60
2010,07,15,13,46,14.30
2010,07,15,13,47,12.40
2010,07,15,13,48,14.70
2010,07,15,13,49,12.30
2010,07,15,13,50,12.60
2010,07,15,13,51,7.50
2010,07,15,13,52,13.20
2010,07,15,13,53,16.40
2010,07,15,13,54,17.90
2010,07,15,13,55,17.40
2010,07,15,13,56,9.90
2010,07,15,13,57,16.90
2010,07,15,13,58,14.90
2010,07,15,13,59,14.20
2010,07,15,14,00,11.30
2010,07,15,14,01,9.30
2010,07,15,14,02,17.20
2010,07,15,14,03,13.10
2010,07,15,14,04,11.50
2010,07,15,14,05,13.00
2010,07,15,14,06,10.70
2010,07,15,14,07,10.60
2010,07,15,14,08,15.80
2010,07,15,14,09,9.40
2010,07,15,14,10,16.10
2010,07,15,14,11,11.70
2010,07,15,14,12,9.70
2010,07,15,14,13,11.90
2010,07,15,14,14,14.00
2010,07,15,14,15,8.00
2010,07,15,14,16,10.10
2010,07,15,14,17,10.80
2010,07,15,14,18,9.70
2010,07,15,14,19,8.80
2010,07,15,14,20,7.30
2010,07,15,14,21,10.30
2010,07,15,14,22,9.30
2010,07,15,14,23,13.00
2010,07,15,14,24,10.90
2010,07,15,14,25,12.40
2010,07,15,14,26,10.60
2010,07,15,14,27,15.40
2010,07,15,14,28,11.50
2010,07,15,14,29,11.30
2010,07,15,14,30,10.80
2010,07,15,14,31,10.60
2010,07,15,14,32,12.30
2010,07,15,14,33,10.10
2010,07,15,14,34,10.80
2010,07,15,14,35,9.90
2010,07,15,14,36,10.60
2010,07,15,14,37,14.60
2010,07,15,14,38,16.00
2010,07,15,14,39,16.70
2010,07,15,14,40,13.20
2010,07,15,14,41,11.50
2010,07,15,14,42,12.80
2010,07,15,14,43,12.80
2010,07,15,14,44,11.40
2010,07,15,14,45,9.00
2010,07,15,14,46,9.70
2010,07,15,14,47,11.20
2010,07,15,14,48,14.00
2010,07,15,14,49,13.60
2010,07,15,14,50,13.70
2010,07,15,14,51,13.00
2010,07,15,14,52,10.70
2010,07,15,14,53,11.80
2010,07,15,14,54,8.50
2010,07,15,14,55,17.90
2010,07,15,14,56,15.90
2010,07,15,14,57,15.40
2010,07,15,14,58,8.70
2010,07,15,14,59,11.80
2010,07,15,15,00,11.70
2010,07,15,15,01,15.30
2010,07,15,15,02,15.00
2010,07,15,15,03,7.70
2010,07,15,15,04,9.70
2010,07,15,15,05,11.40
2010,07,15,15,06,10.70
2010,07,15,15,07,13.20
2010,07,15,15,08,14.70
2010,07,15,15,09,7.80
2010,07,15,15,10,13.40
2010,07,15,15,11,9.20
2010,07,15,15,12,9.10
2010,07,15,15,13,9.00
2010,07,15,15,14,16.70
2010,07,15,15,15,9.60
2010,07,15,15,16,11.50
2010,07,15,15,17,15.20
2010,07,15,15,18,12.70
2010,07,15,15,19,10.70
2010,07,15,15,20,10.60
2010,07,15,15,21,16.70
2010,07,15,15,22,17.10
2010,07,15,15,23,13.40
2010,07,15,15,24,17.50
2010,07,15,15,25,15.60
2010,07,15,15,26,14.40
2010,07,15,15,27,12.20
2010,07,15,15,28,11.10
2010,07,15,15,29,16.20
2010,07,15,15,30,15.50
2010,07,15,15,31,14.40
2010,07,15,15,32,14.70
2010,07,15,15,33,17.90
2010,07,15,15,34,15.20
2010,07,15,15,35,12.60
2010,07,15,15,36,7.90
2010,07,15,15,37,11.70
2010,07,15,15,38,8.20
2010,07,15,15,39,9.60
2010,07,15,15,40,11.70
2010,07,15,15,41,8.70
2010,07,15,15,42,7.60
2010,07,15,15,43,13.30
2010,07,15,15,44,10.20
2010,07,15,15,45,9.30
2010,07,15,15,46,12.60
2010,07,15,15,47,5.60
2010,07,15,15,48,12.60
2010,07,15,15,49,11.80
2010,07,15,15,50,13.90
2010,07,15,15,51,8.50
2010,07,15,15,52,12.40
2010,07,15,15,53,8.50
2010,07,15,15,54,11.20
2010,07,15,15,55,9.50
2010,07,15,15,56,10.20
2010,07,15,15,57,11.70
2010,07,15,15,58,10.60
2010,07,15,15,59,11.50
2010,07,15,16,00,10.50
2010,07,15,16,01,11.30
2010,07,15,16,02,15.20
2010,07,15,16,03,14.20
2010,07,15,16,04,15.40
2010,07,15,16,05,10.30
2010,07,15,16,06,9.60
2010,07,15,16,07,8.50
2010,07,15,16,08,12.40
2010,07,15,16,09,12.50
2010,07,15,16,10,11.50
2010,07,15,16,11,10.80
2010,07,15,16,12,10.40
2010,07,15,16,13,9.70
2010,07,15,16,14,9.30
2010,07,15,16,15,10.50
2010,07,15,16,16,14.40
2010,07,15,16,17,15.80
2010,07,15,16,18,16.10
2010,07,15,16,19,7.50
2010,07,15,16,20,11.40
2010,07,15,16,21,9.10
2010,07,15,16,22,16.20
2010,07,15,16,23,13.10
2010,07,15,16,24,13.10
2010,07,15,16,25,12.20
2010,07,15,16,26,12.10
2010,07,15,16,27,11.80
2010,07,15,16,28,12.80
2010,07,15,16,29,14.90
2010,07,15,16,30,10.90
2010,07,15,16,31,11.60
2010,07,15,16,32,12.40
2010,07,15,16,33,12.60
2010,07,15,16,34,13.00
2010,07,15,16,35,9.90
2010,07,15,16,36,14.30
2010,07,15,16,37,12.60
2010,07,15,16,38,7.80
2010,07,15,16,39,10.50
2010,07,15,16,40,13.30
2010,07,15,16,41,10.90
2010,07,15,16,42,6.10
2010,07,15,16,43,9.50
2010,07,15,16,44,11.50
2010,07,15,16,45,13.20
2010,07,15,16,46,11.70
2010,07,15,16,47,10.60
2010,07,15,16,48,9.30
2010,07,15,16,49,9.50
2010,07,15,16,50,11.20
2010,07,15,16,51,12.60
2010,07,15,16,52,10.70
2010,07,15,16,53,15.20
2010,07,15,16,54,8.30
2010,07,15,16,55,9.70
2010,07,15,16,56,5.90
2010,07,15,16,57,7.40
2010,07,15,16,58,8.30
2010,07,15,16,59,10.20
2010,07,15,17,00,8.80
2010,07,15,17,01,11.10
2010,07,15,17,02,10.50
2010,07,15,17,03,14.50
2010,07,15,17,04,11.20
2010,07,15,17,05,5.10
2010,07,15,17,06,10.40
2010,07,15,17,07,11.30
2010,07,15,17,08,13.50
2010,07,15,17,09,12.40
2010,07,15,17,10,10.80
2010,07,15,17,11,8.80
2010,07,15,17,12,9.60
2010,07,15,17,13,8.50
2010,07,15,17,14,10.00
2010,07,15,17,15,7.00
2010,07,15,17,16,12.10
2010,07,15,17,17,9.30
2010,07,15,17,18,6.40
2010,07,15,17,19,7.30
2010,07,15,17,20,8.50
2010,07,15,17,21,9.70
2010,07,15,17,22,7.10
2010,07,15,17,23,7.60
2010,07,15,17,24,9.40
2010,07,15,17,25,9.50
2010,07,15,17,26,8.00
2010,07,15,17,27,7.30
2010,07,15,17,28,7.10
2010,07,15,17,29,8.30
2010,07,15,17,30,3.50
2010,07,15,17,31,3.50
2010,07,15,17,32,4.50
2010,07,15,17,33,4.90
2010,07,15,17,34,10.10
2010,07,15,17,35,5.10
2010,07,15,17,36,8.40
2010,07,15,17,37,9.40
2010,07,15,17,38,10.30
2010,07,15,17,39,8.80
2010,07,15,17,40,9.90
2010,07,15,17,41,7.20
2010,07,15,17,42,10.40
2010,07,15,17,43,9.10
2010,07,15,17,44,8.40
2010,07,15,17,45,6.70